Asheville, NC

6:03 AM EDT on April 30, 2017 (GMT -0400)
Asheville Regional

Weather History for KAVL - March, 2010

Change the Weather History Date:

Thursday, March 11, 2010

  Actual Average Record
Temperature  
Mean Temperature 49 °F 46 °F  
Max Temperature 52 °F 57 °F 79 °F (1967)
Min Temperature 46 °F 34 °F 14 °F (1934)
Degree Days  
Heating Degree Days 16 19  
Month to date heating degree days 270 224  
Since 1 July heating degree days 3850 3441  
Cooling Degree Days 0 0  
Month to date cooling degree days 0 0  
Year to date cooling degree days 0 0  
Moisture  
Dew Point 48 °F    
Average Humidity 93    
Maximum Humidity 100    
Minimum Humidity 86    
Precipitation  
Precipitation 0.39 in 0.12 in 0.99 in (2000)
Month to date precipitation 0.91 1.36  
Year to date precipitation 11.26 8.79  
Snow  
Snow 0.00 in 0.10 in 10.00 in (1926)
Month to date snowfall 8.8 0.8  
Since 1 July snowfall 38.2 8.1  
Snow Depth 0.00 in    
Sea Level Pressure  
Sea Level Pressure 29.86 in    
Wind  
Wind Speed 4 mph (South)    
Max Wind Speed 12 mph    
Max Gust Speed 16 mph    
Visibility 4 miles    
Events Rain    
T = Trace of Precipitation, MM = Missing Value Source: NWS Daily Summary

Daily Weather History Graph

Daily Weather History Graph

Search for Another Location

Airport or City:

Trip Planner

Search our weather history database for the weather conditions in past years. The results will help you decide how hot, cold, wet, or windy it might be!

Date:

Astronomy

Mar. 11, 2010 Rise Set
Actual Time 6:46 AM EST 6:34 PM EST
Civil Twilight 6:21 AM EST 6:59 PM EST
Nautical Twilight 5:51 AM EST 7:29 PM EST
Astronomical Twilight 5:22 AM EST 7:58 PM EST
Moon 4:25 AM EST (3/11) 2:57 PM EST (3/11)
Length of Visible Light 12h 38m
Length of Day
11h 47m
Waning Crescent, 15% of the Moon is Illuminated
Mar 11
Waning Crescent
Mar 15
New
Mar 23
First Quarter
Mar 29
Full
Apr 6
Last Quarter

Hourly Weather History & Observations

Time (EST) Temp. Windchill Dew Point Humidity Pressure Visibility Wind Dir Wind Speed Gust Speed Precip Events Conditions
12:54 AM 48.0 °F - 46.0 °F 93% 29.90 in 10.0 mi SSE 6.9 mph - N/A   Overcast
1:27 AM 48.2 °F - 46.4 °F 93% 29.94 in 10.0 mi SSE 4.6 mph - N/A   Overcast
1:54 AM 48.0 °F - 46.0 °F 93% 29.91 in 10.0 mi SE 4.6 mph - N/A   Overcast
2:36 AM 48.2 °F - 46.4 °F 93% 29.92 in 10.0 mi Variable 4.6 mph - N/A   Overcast
2:54 AM 48.0 °F - 46.0 °F 93% 29.89 in 10.0 mi SSE 3.5 mph - N/A   Overcast
3:04 AM 48.2 °F - 46.4 °F 93% 29.91 in 10.0 mi Calm Calm - N/A   Overcast
3:54 AM 46.9 °F - 45.0 °F 93% 29.88 in 9.0 mi SSE 3.5 mph - N/A   Partly Cloudy
4:39 AM 46.4 °F 45.2 °F 46.4 °F 100% 29.89 in 9.0 mi SSE 3.5 mph - N/A   Overcast
4:54 AM 46.9 °F - 46.0 °F 97% 29.86 in 10.0 mi South 4.6 mph - N/A   Overcast
5:54 AM 46.9 °F - 46.0 °F 97% 29.87 in 10.0 mi South 4.6 mph - N/A   Overcast
6:10 AM 46.4 °F 43.5 °F 46.4 °F 100% 29.89 in 10.0 mi SSE 5.8 mph - N/A   Overcast
6:44 AM 46.4 °F 42.4 °F 44.6 °F 93% 29.90 in 9.0 mi SSE 8.1 mph - N/A   Overcast
6:54 AM 46.0 °F 41.9 °F 45.0 °F 96% 29.88 in 10.0 mi SSE 8.1 mph - N/A   Overcast
7:05 AM 46.4 °F 42.9 °F 44.6 °F 93% 29.90 in 9.0 mi South 6.9 mph - N/A   Overcast
7:23 AM 46.4 °F 43.5 °F 44.6 °F 93% 29.90 in 10.0 mi SSW 5.8 mph - N/A   Overcast
7:54 AM 46.9 °F - 46.0 °F 97% 29.89 in 7.0 mi SSW 4.6 mph - N/A   Overcast
8:54 AM 46.9 °F - 46.0 °F 97% 29.91 in 2.0 mi SSW 5.8 mph - N/A   Overcast
9:07 AM 46.4 °F 43.5 °F 46.4 °F 100% 29.93 in 2.0 mi SSW 5.8 mph - N/A   Overcast
9:16 AM 46.4 °F 44.3 °F 46.4 °F 100% 29.93 in 1.5 mi SSW 4.6 mph - N/A   Overcast
9:54 AM 48.0 °F - 46.9 °F 96% 29.90 in 1.8 mi Calm Calm - N/A   Overcast
10:04 AM 48.2 °F - 46.4 °F 93% 29.91 in 2.5 mi Calm Calm - N/A   Overcast
10:26 AM 48.2 °F - 48.2 °F 100% 29.90 in 3.0 mi Calm Calm - N/A   Overcast
10:36 AM 48.2 °F - 46.4 °F 93% 29.91 in 2.5 mi Calm Calm - 0.00 in Rain Light Rain
10:52 AM 48.2 °F - 48.2 °F 100% 29.90 in 4.0 mi South 4.6 mph - 0.00 in Rain Light Rain
10:54 AM 48.0 °F - 48.0 °F 100% 29.88 in 4.0 mi South 3.5 mph - 0.00 in Rain Light Rain
11:54 AM 48.9 °F - 48.0 °F 97% 29.88 in 4.0 mi SSW 4.6 mph - 0.02 in Rain Light Rain
12:54 PM 48.9 °F - 48.9 °F 100% 29.84 in 3.0 mi Calm Calm - 0.08 in Rain Rain
1:24 PM 48.2 °F - 48.2 °F 100% 29.85 in 2.5 mi SW 6.9 mph - 0.06 in Rain Rain
1:37 PM 48.2 °F - 48.2 °F 100% 29.85 in 3.0 mi SSW 5.8 mph - 0.09 in Rain Rain
1:54 PM 50.0 °F - 48.9 °F 96% 29.82 in 5.0 mi South 4.6 mph - 0.12 in Rain Light Rain
2:54 PM 52.0 °F - 51.1 °F 97% 29.78 in 3.0 mi South 8.1 mph - 0.04 in Rain Light Rain
3:42 PM 51.8 °F - 50.0 °F 94% 29.81 in 2.5 mi SSE 6.9 mph - 0.01 in Rain Light Rain
3:54 PM 51.1 °F - 50.0 °F 96% 29.79 in 1.5 mi South 8.1 mph - 0.02 in Rain Light Rain
4:10 PM 51.8 °F - 50.0 °F 94% 29.81 in 2.0 mi South 6.9 mph - 0.03 in Rain Light Rain
4:20 PM 51.8 °F - 50.0 °F 94% 29.81 in 3.0 mi South 5.8 mph - 0.03 in Rain Light Rain
4:28 PM 51.8 °F - 50.0 °F 94% 29.81 in 2.0 mi SSW 4.6 mph - 0.04 in Rain Light Rain
4:47 PM 50.0 °F - 50.0 °F 100% 29.81 in 3.0 mi SSE 4.6 mph - 0.05 in Rain Light Rain
4:54 PM 51.1 °F - 50.0 °F 96% 29.79 in 3.0 mi SSE 3.5 mph - 0.06 in Rain Light Rain
5:26 PM 51.8 °F - 50.0 °F 94% 29.82 in 5.0 mi SSW 4.6 mph - N/A Rain Light Rain
5:54 PM 51.1 °F - 50.0 °F 96% 29.80 in 4.0 mi SE 3.5 mph - 0.01 in Rain Light Rain
6:04 PM 51.8 °F - 50.0 °F 94% 29.82 in 3.0 mi SSE 3.5 mph - 0.00 in Rain Light Rain
6:22 PM 50.0 °F - 50.0 °F 100% 29.82 in 3.0 mi SSW 3.5 mph - 0.01 in Rain Light Rain
6:35 PM 50.0 °F - 50.0 °F 100% 29.82 in 9.0 mi South 3.5 mph - 0.01 in   Overcast
6:54 PM 50.0 °F - 50.0 °F 100% 29.81 in 4.0 mi South 3.5 mph - 0.01 in   Overcast
7:01 PM 50.0 °F - 50.0 °F 100% 29.83 in 2.5 mi South 3.5 mph - N/A   Overcast
7:49 PM 50.0 °F - 50.0 °F 100% 29.83 in 2.0 mi Calm Calm - 0.01 in   Overcast
7:50 PM 50.0 °F - 50.0 °F 100% 29.82 in 2.0 mi Calm Calm - 0.01 in   Overcast
8:09 PM 50.0 °F - 48.2 °F 94% 29.84 in 1.8 mi Calm Calm - 0.00 in Rain Light Rain
8:44 PM 50.0 °F - 48.2 °F 94% 29.85 in 1.8 mi South 3.5 mph - 0.01 in   Overcast
8:54 PM 50.0 °F - 48.9 °F 96% 29.83 in 1.8 mi Calm Calm - 0.01 in Rain Light Rain
8:58 PM 50.0 °F - 48.2 °F 94% 29.84 in 3.0 mi Calm Calm - 0.00 in Rain Light Rain
9:10 PM 50.0 °F - 48.2 °F 94% 29.85 in 3.0 mi South 4.6 mph - 0.00 in   Overcast
9:20 PM 50.0 °F - 48.2 °F 94% 29.85 in 2.5 mi South 3.5 mph - 0.00 in   Overcast
9:29 PM 50.0 °F - 48.2 °F 94% 29.85 in 4.0 mi Calm Calm - 0.00 in   Overcast
9:44 PM 50.0 °F - 48.2 °F 94% 29.85 in 3.0 mi South 3.5 mph - 0.00 in   Overcast
9:54 PM 50.0 °F - 48.9 °F 96% 29.83 in 3.0 mi South 3.5 mph - 0.00 in   Overcast
10:15 PM 50.0 °F - 48.2 °F 94% 29.84 in 2.0 mi South 3.5 mph - N/A   Overcast
10:23 PM 50.0 °F - 48.2 °F 94% 29.84 in 1.8 mi South 4.6 mph - N/A   Overcast
10:34 PM 50.0 °F - 48.2 °F 94% 29.84 in 1.8 mi SSE 4.6 mph - N/A   Overcast
10:51 PM 50.0 °F - 50.0 °F 100% 29.84 in 1.0 mi SW 3.5 mph - N/A   Overcast
10:54 PM 50.0 °F - 50.0 °F 100% 29.82 in 0.8 mi Calm Calm - N/A   Overcast
11:33 PM 50.0 °F - 50.0 °F 100% 29.84 in 1.0 mi South 3.5 mph - 0.00 in Rain Light Rain
11:47 PM 50.0 °F - 50.0 °F 100% 29.83 in 2.0 mi Calm Calm - 0.01 in Rain Light Rain
11:54 PM 50.0 °F - 50.0 °F 100% 29.81 in 2.0 mi Calm Calm - 0.01 in Rain Light Rain